N5CSC Weather Reports


time (UTC)temp
F
wind
direction
speed
knots
gust
knots
rain 1hr
in
rain 24hr
in
rain mn
in
humidity
%
barometer
mb
20260510080028 72 200 0.0 0.0 0.00 0.00 0.00 68 1009.2
20260510074530 73 200 0.0 0.0 0.00 0.00 0.00 68 1009.3
20260510073034 73 200 0.0 0.0 0.00 0.00 0.00 67 1009.2
20260510071534 74 202 0.0 2.6 0.00 0.00 0.00 66 1009.1
20260510070026 74 181 0.0 2.6 0.00 0.00 0.00 66 1009.1
20260510064545 74 180 0.0 2.6 0.00 0.00 0.00 66 1009.2
20260510063022 75 169 0.9 5.2 0.00 0.00 0.00 66 1009.1
20260510061617 75 173 0.9 2.6 0.00 0.00 0.00 67 1009.3
20260510060027 75 171 0.0 4.3 0.00 0.00 0.00 67 1009.2
20260510054512 76 184 0.0 2.6 0.00 0.00 0.00 67 1009.1
20260510053011 76 148 0.9 4.3 0.00 0.00 0.00 67 1009.0
20260510051509 76 176 1.7 5.2 0.00 0.00 0.00 67 1008.9
20260510050009 76 180 0.9 3.5 0.00 0.00 0.00 66 1008.9
20260510044508 77 173 0.0 0.9 0.00 0.00 0.00 65 1008.7
20260510043005 78 173 0.0 3.5 0.00 0.00 0.00 65 1008.7
20260510041504 78 177 0.9 3.5 0.00 0.00 0.00 64 1008.7
20260510040004 78 161 0.9 2.6 0.00 0.00 0.00 64 1008.6
20260510034503 78 163 0.0 1.7 0.00 0.00 0.00 64 1008.4
20260510033002 79 165 0.9 1.7 0.00 0.00 0.00 63 1008.2
20260510031503 79 166 0.0 0.9 0.00 0.00 0.00 63 1007.9
20260510030002 79 166 0.0 1.7 0.00 0.00 0.00 62 1007.8
20260510024601 80 166 0.0 1.7 0.00 0.00 0.00 62 1007.7
20260510023001 80 166 0.0 0.0 0.00 0.00 0.00 60 1007.5
20260510021600 81 166 0.0 0.0 0.00 0.00 0.00 59 1007.4
20260510020100 82 166 0.0 0.0 0.00 0.00 0.00 57 1007.3
20260510014601 82 166 0.0 0.0 0.00 0.00 0.00 56 1007.0
20260510013103 83 166 0.0 1.7 0.00 0.00 0.00 55 1006.8
20260510011600 84 166 0.9 1.7 0.00 0.00 0.00 53 1006.7
20260510010057 85 166 0.9 2.6 0.00 0.00 0.00 51 1006.6
20260510004557 86 175 0.9 2.6 0.00 0.00 0.00 48 1006.5
20260510003100 86 130 0.9 3.5 0.00 0.00 0.00 47 1006.3
20260510001556 87 169 1.7 4.3 0.00 0.00 0.00 44 1006.1
20260510000104 88 133 1.7 3.5 0.00 0.00 0.00 45 1006.0
20260509234605 88 172 2.6 7.8 0.00 0.00 0.00 46 1005.7
20260509233057 89 154 4.3 7.0 0.00 0.00 0.00 44 1005.5
20260509231609 90 170 1.7 4.3 0.00 0.00 0.00 40 1005.8
20260509224553 90 170 0.9 6.1 0.00 0.00 0.00 42 1006.2
20260509223049 90 192 0.9 3.5 0.00 0.00 0.00 44 1006.1
20260509221547 90 173 1.7 6.1 0.00 0.00 0.00 46 1006.0
20260509220045 91 255 0.0 3.5 0.00 0.00 0.00 48 1006.0
20260509214545 90 174 1.7 7.8 0.00 0.00 0.00 48 1006.1
20260509213046 90 294 0.0 4.3 0.00 0.00 0.00 49 1006.2
20260509211549 90 67 0.0 5.2 0.00 0.00 0.00 48 1006.4
20260509210052 90 186 0.0 5.2 0.00 0.00 0.00 50 1006.6
20260509204537 89 175 3.5 7.0 0.00 0.00 0.00 51 1006.8
20260509203041 89 169 3.5 7.0 0.00 0.00 0.00 51 1007.0
20260509201540 89 231 0.9 2.6 0.00 0.00 0.00 53 1007.3
20260509200034 89 325 1.7 4.3 0.00 0.00 0.00 52 1007.5
20260509194531 89 172 2.6 4.3 0.00 0.00 0.00 55 1007.8
20260509193029 88 184 1.7 5.2 0.00 0.00 0.00 55 1008.1
20260509191526 87 196 0.9 3.5 0.00 0.00 0.00 57 1008.3
20260509190026 87 218 1.7 4.3 0.00 0.00 0.00 62 1008.4
20260509184532 87 226 0.9 5.2 0.00 0.00 0.00 60 1008.3
20260509183030 86 185 1.7 5.2 0.00 0.00 0.00 61 1008.6
20260509181519 86 249 1.7 4.3 0.00 0.00 0.00 64 1008.7
20260509180019 85 253 0.9 6.1 0.00 0.00 0.00 65 1009.0
20260509174516 84 303 4.3 7.0 0.00 0.00 0.00 64 1009.1
20260509173015 84 292 1.7 6.1 0.00 0.00 0.00 67 1009.2
20260509171519 83 266 1.7 7.0 0.00 0.00 0.00 69 1009.3
20260509170005 82 278 0.9 5.2 0.00 0.00 0.00 72 1009.4
20260509164502 81 252 1.7 6.1 0.00 0.00 0.00 74 1009.2
20260509163106 81 278 2.6 6.1 0.00 0.00 0.00 76 1009.3
20260509161558 79 217 1.7 4.3 0.00 0.00 0.00 78 1009.0
20260509160052 78 257 1.7 6.1 0.00 0.00 0.00 79 1009.6
20260509154648 77 275 1.7 4.3 0.00 0.00 0.00 81 1009.6
20260509153045 75 206 0.9 5.2 0.00 0.00 0.00 82 1009.8
20260509151542 73 304 0.0 2.6 0.00 0.00 0.00 83 1009.8
20260509150040 72 209 0.0 0.9 0.00 0.00 0.00 83 1009.9
20260509144538 71 176 1.7 4.3 0.00 0.00 0.00 83 1010.0
20260509143046 71 172 0.0 3.5 0.00 0.00 0.00 83 1010.2
20260509141534 73 138 0.9 3.5 0.00 0.00 0.00 83 1010.3
20260509140031 73 167 0.9 2.6 0.00 0.00 0.00 83 1010.0
20260509134531 73 182 1.7 5.2 0.00 0.00 0.00 83 1009.6
20260509133030 73 39 0.0 1.7 0.00 0.00 0.00 83 1008.6
20260509131529 73 39 0.9 3.5 0.00 0.00 0.00 83 1008.9
20260509130030 73 30 2.6 4.3 0.00 0.00 0.00 83 1009.5
20260509124538 73 37 1.7 6.1 0.00 0.00 0.00 83 1009.9
20260509123027 73 26 3.5 7.0 0.00 0.00 0.00 83 1009.7
20260509121538 73 36 4.3 8.7 0.00 0.00 0.00 83 1009.8
20260509120024 73 5 1.7 3.5 0.00 0.00 0.00 83 1009.6
20260509114546 73 26 0.0 2.6 0.00 0.00 0.00 83 1009.0
20260509113023 73 26 0.0 0.0 0.00 0.00 0.00 83 1008.7
20260509111523 73 26 1.7 4.3 0.00 0.00 0.00 83 1008.7
20260509110022 73 16 1.7 5.2 0.00 0.00 0.00 83 1008.5
20260509104522 73 33 1.7 3.5 0.00 0.00 0.00 83 1008.5
20260509103021 73 32 0.9 4.3 0.00 0.00 0.00 83 1008.7
20260509101524 73 39 1.7 3.5 0.00 0.00 0.00 83 1009.0
20260509100020 73 37 0.0 3.5 0.00 0.00 0.00 83 1008.9
20260509094524 73 34 0.9 4.3 0.00 0.00 0.00 83 1008.2
20260509093020 73 32 1.7 4.3 0.00 0.00 0.00 83 1007.8
20260509091518 73 25 2.6 5.2 0.00 0.00 0.00 83 1007.3
20260509090041 73 26 1.7 2.6 0.00 0.00 0.00 83 1007.7
20260509084522 73 30 0.9 3.5 0.00 0.00 0.00 83 1007.5
20260509083038 73 121 0.0 2.6 0.00 0.00 0.00 83 1007.6
20260509081523 73 118 1.7 4.3 0.00 0.00 0.00 83 1007.3